Location: Unspecified
(43.4354°N, 0.0000°E)
Time: 17:15:31
(UTC+00:00)

Tiros 1 despin weight - Pass Details

Date: 26 June 2019
Orbit: 594 x 642 km, 48.2° (Epoch: 16 July)

Event Time Altitude Azimuth Distance (km) Brightness Sun altitude
Rises 00:49:40 0° 284° (WNW) 2,847 ? -22.3°
Reaches altitude 10° 00:52:03 10° 290° (WNW) 1,938 ? -22.2°
Maximum altitude 00:56:19 45° 4° (N) 817 ? -22.1°
Drops below altitude 10° 01:00:34 10° 78° (ENE) 1,926 ? -21.9°
Sets 01:02:55 0° 85° (E) 2,827 ? -21.8°
